Regional Weather Roundup
Issued by NWS Wakefield, VA

Home | Current Version | Previous Version | Graphics & Text | Print | Product List | Glossary On
Versions: 1 2 3 4 5 6 7 8 9 10 11 12 13 14 15 16 17 18 19 20 21 22 23 24 25 26 27 28 29 30 31 32 33 34 35 36 37 38 39 40 41 42 43 44 45 46 47 48 49 50
143
ASUS41 KAKQ 282015
RWRAKQ

REGIONAL WEATHER ROUNDUP
NATIONAL WEATHER SERVICE WAKEFIELD VA
400 PM EDT SUN MAY 28 2017

Note: "fair" indicates few or no clouds below 12,000 feet with no
significant weather and/or obstructions to visibility. * = Denotes
station may not report precipitation (e.g., rain,snow,etc.),
thunder or fog.

VAZ042-051-052>054-056-282100-
NORTHERN VIRGINIA

CITY           SKY/WX    TMP DP  RH WIND       PRES   REMARKS
WASH NATIONAL  CLOUDY    68  65  90 E10       29.85F
DULLES         CLOUDY    66  63  90 E6        29.86S
FORT BELVOIR   CLOUDY    69  63  83 CALM      29.84F
QUANTICO       CLOUDY    69  67  93 NE6       29.85S
FREDERICKSBRG* CLOUDY    69  69 100 N5        29.82F
STAFFORD*      CLOUDY    67  66  97 NE5       29.88S
WARRENTON      CLOUDY    69  62  78 E5        29.85S
CULPEPER*      CLOUDY    70  66  86 E5        29.85F
MANASSAS*      CLOUDY    68  65  90 SE6       29.85F
LEESBURG*      CLOUDY    70  64  83 SE7       29.87F
WINCHESTER     CLOUDY    68  61  77 E7        29.84F
FRONT ROYAL*   CLOUDY    70  61  73 CALM      29.82F
LURAY*         CLOUDY    66  64  94 N5        29.83F
$$

VAZ048-049-060>072-079>083-282100-
CENTRAL AND SOUTH CENTRAL VIRGINIA

CITY           SKY/WX    TMP DP  RH WIND       PRES   REMARKS
RICHMOND       PTSUNNY   77  69  76 NE3       29.80S
CHESTERFIELD*  NOT AVBL
PETERSBURG*    CLOUDY    75  66  73 CALM      29.80F
HANOVER        CLOUDY    73  66  78 E3        29.82S
TAPPAHANNOCK*  PTSUNNY   72  71  97 NE6       29.82S
QUINTON*       CLOUDY   N/A N/A N/A N3        29.80S
CHARLOTTSVILLE CLOUDY    70  66  87 N5        29.83F
GORDONSVILLE*  CLOUDY    69  66  90 CALM      29.83S
ORANGE*        CLOUDY    68  63  83 NW6       29.84S
LOUISA*        CLOUDY    73  70  88 CALM      29.83S
BUMPASS*       CLOUDY    70  69  96 CALM      29.82F
FARMVILLE*     CLOUDY    73  63  72 N3        29.81F
CREWE*         MOCLDY    74  69  85 N5        29.81F
FORT PICKETT*  CLOUDY    76  69  79 NW8G16    29.81F
CHASE CITY*    FAIR      78  65  64 CALM      29.80F
CLARKSVILLE*   FAIR      81  68  65 SW8       29.80F
SOUTH HILL*    MOSUNNY   80  69  68 SW6       29.85F
LAWRENCEVILLE* MOCLDY    77  70  77 CALM      29.80S
EMPORIA*       PTSUNNY   77  70  78 W5        29.81S
$$

VAZ088>098-282100-
SOUTHEAST VIRGINIA

CITY           SKY/WX    TMP DP  RH WIND       PRES   REMARKS
NORFOLK        LGT RAIN  70  66  87 NE10      29.79R
VIRGINIA BEACH CLOUDY    68  65  90 NW9       29.79R
NORFOLK NAVAL  CLOUDY    70  66  87 NE12      29.81S
WEST POINT*    CLOUDY    73  69  87 NE6       29.81S
SALUDA*        CLOUDY    69  68  98 E5        29.81F
NEWPORT NEWS   CLOUDY    71  67  87 NE12      29.79F
LANGLEY AFB    PTSUNNY   70  69  94 NE13      29.78S
FORT EUSTIS    MOSUNNY   76  68  77 NE8       29.77F
WILLIAMSBURG*  SUNNY     75  72  88 CALM      29.80S
HR EXEC AP*    MOCLDY    73  68  83 NE3       29.77R
FRANKLIN*      PTSUNNY   78  69  75 N6        29.78S
US460-WAKEFLD  MOSUNNY   78  71  79 VRB3      29.79S
$$

VAZ020-022-025-037-045-282100-
WEST CENTRAL AND SOUTHWEST VIRGINIA

CITY           SKY/WX    TMP DP  RH WIND       PRES   REMARKS
STAUNTON*      LGT RAIN  68  64  85 CALM      29.85F
WAYNESBORO*    CLOUDY    70  65  85 E6        29.85S
HOT SPRINGS VA DRIZZLE   64  59  82 CALM      29.93S
LYNCHBURG      CLOUDY    71  66  84 E5        29.85S
DANVILLE       CLOUDY    78  67  68 SW7       29.82S
SOUTH BOSTON*  MOCLDY    80  65  61 W3        29.81F
MARTINSVILLE   CLOUDY    79  65  62 SW5       29.87R
ROANOKE        CLOUDY    75  68  78 SE14      29.84R
BLACKSBURG     CLOUDY    73  62  67 W5        29.91S
DUBLIN*        CLOUDY    74  58  56 SW12      29.91R
MARION*        CLOUDY    69  60  72 CALM      29.96S
HILLSVILLE*    CLOUDY    71  55  56 SW6       29.93R
RICHLANDS*     CLOUDY    67  60  78 SW7       29.94R
WISE*          CLOUDY    68  59  73 SW7       29.95F
ABINGDON*      CLOUDY    72  63  73 W9        29.93S
$$

MDZ021>025-VAZ099-100-282100-
SOUTHERN MARYLAND AND THE DELMARVA PENINSULA

CITY           SKY/WX    TMP DP  RH WIND       PRES   REMARKS
PATUXENT RIVER LGT RAIN  68  68 100 E5        29.83F FOG
BAY BRIDGE APT RAIN      66  64  94 S3        29.87S FOG
LEONARDTOWN    CLOUDY    68  64  88 E8        29.85F
DOVER          LGT RAIN  64  64 100 SE6       29.88S
GEORGETOWN     LGT RAIN  65  62  90 E8        29.87F
EASTON         LGT RAIN  68  64  88 E6        29.90F
CAMBRIDGE      PTSUNNY   72  66  83 NE6       29.85S
SALISBURY      LGT RAIN  67  66  97 E7        29.84F
OCEAN CITY     LGT RAIN  64  62  93 E9        29.85F
WALLOPS ISLAND LGT RAIN  66  66 100 E8        29.84S
ACCOMACK*      HVY RAIN  66  34  30 E6        29.82F
$$

NCZ012>017-030>032-282100-
NORTH CENTRAL AND EASTERN NORTH CAROLINA

CITY           SKY/WX    TMP DP  RH WIND       PRES   REMARKS
ROANOKE RAPIDS FAIR      82  66  57 W10G17    29.79S
RALEIGH        PTSUNNY   85  66  53 SW14      29.81F
ELIZABETH CITY TSTM      73  72  96 SW8       29.77S FOG
AHOSKIE*       NOT AVBL
EDENTON*       CLOUDY    89  67  47 W16       29.76R
CURRITUCK*     LGT RAIN  77  77  99 S3        29.78R
KILL DEVIL HLS CLOUDY    80  69  69 CALM      29.73F
MANTEO         CLOUDY    79  71  77 SW22      29.74F
CAPE HATTERAS  CLOUDY    79  72  79 SW13G21   29.81F
TARBORO*       NOT AVBL
GOLDSBORO      PTSUNNY   88  64  45 SW20G25   29.79S
WASHINGTON     SUNNY     90  64  42 W18G25    29.77S
GREENVILLE     SUNNY     90  64  43 W10G26    29.80F
NEW BERN       PTSUNNY   89  70  53 SW10G20   29.79F
WILMINGTON     CLOUDY    88  72  58 S15       29.83F
$$

VAZ048-282100-
ELSEWHERE

CITY           SKY/WX    TMP DP  RH WIND       PRES   REMARKS
HARRISBURG PA  LGT RAIN  69  65  86 SE6       29.84F
BALTIMORE      LGT RAIN  66  66 100 CALM      29.86S FOG
ANNAPOLIS      LGT RAIN  68  66  93 SE9       29.86F FOG
ANDREWS AFB    CLOUDY    66  63  91 E9        29.84F
PHILADELPHIA   CLOUDY    74  58  57 SE9       29.87F
HENDERSON NC   MOSUNNY   78  64  61 SW6       29.81F
GREENSBORO     CLOUDY    81  64  56 W12       29.84S
ROCKY MOUNT    SUNNY     88  66  48 W13G25    29.79S
$$

VAZ100-282100-
MARINE

STATION/POSITION TIME  TEMP    WIND        PRES    WAVE   SWELL
                       AIR SEA DIR/SP/G            HT/PER HT/PER
                 (UTC) (F)     (DEG/KT/KT) (MB)    (FT/S) (FT/S)
CAPE MAY NJ      1942   63 63   80/  8/ 11 1011.6R
LEWES DE         1942   63 65  150/  8/ 11 1011.4F
15NM E FENWICK I 1850   62 60   80/ 12/ 14 1011.8    2/ 8   2/ 8
WACHAPREAGUE VA  1942   65 71   40/  5/  6 1009.6F
THOMAS POINT MD  2000   65 66   70/  7/  8   N/A
GOOSES REEF MD   2000   68 65   80/  6/  8 1011.2    1/ 2
COVE POINT MD    1942   67     190/  4/  6 1011.3F
SOLOMONS ISLAND  1942   68 68  130/  6/  7   N/A
BISHOPS HEAD MD  1942   69 73   90/  7/ 10 1010.6F
PINEY POINT MD   1948          110/ 10/ 10   N/A
POTOMAC MD       1950   68      30/  2/  4 1009.4F
CAMBRIDGE MD     1942   71 71                N/A
LEWISETTA VA     1942   68 71  110/  6/  7 1010.2F
RAPPAHANNOCK LGT 1948           60/  9/ 10 1010.2F
STINGRAY PT      1950   67     100/  6/  8 1009.5F
YORK RVR RNG VA  1942   67      70/ 13/ 15 1008.4F
YORKTOWN VA      1942   68 70   70/  9/ 11 1008.8F
JAMESTOWN VA     1950   72      60/  6/ 10   N/A
DOMINION TERM VA 1942   70      20/  4/  7 1008.8F
KIPTOPEKE VA     1942      68   70/  8/ 13   N/A
CHES BAY BRIDGE  1942   67 68  320/ 17/ 22 1009.6R
CAPE HENRY VA    1942   66      40/  9/ 12   N/A
WILLOUBY STN VA  1942   67      50/ 11/ 13 1008.9R
S CRANEY ISL VA  1942   68      50/ 13/ 16 1008.3R
CAPE HENRY BUOY  1942      66                N/A     2/ 7
1ST LANDING BUOY 1950   67                 1009.6R
CAPE CHARLES BUO 1951      65                N/A     2/ 7
64NM E OF VA BCH 1950   69 67  160/  8/  8 1009.3F   3/ 6   3/ 6
DUCK PIER NC     1942   71 68  130/ 12/ 15 1006.6F
44100 DUCK FRF   1935      67                N/A     2/ 7
44056 DUCK FRF   1930      69                N/A     2/ 8
OREGON INLET NC  1942   78 66  180/ 17/ 21 1007.9F
HATTERAS NC      1942   78 74  190/  9/ 15 1009.2F
DIAMOND SHLS NC  1950   78 77  210/ 17/ 21 1009.7F   3/ 6   2/ 6
CAPE LOOKOUT NC  1900   80     210/ 15/ 18 1010.3F
$$




USA.gov is the U.S. government's official web portal to all federal, state and local government web resources and services.